Temp
-8 -8 -8 -8 -7 -6 -7 -7 -6 -7 -6 -6 -6 -6 -6 -5 -6 -5 -5 -5 -5 -5 -5 -5 -5 -5 -5 -5 -6 -6 -6 -6 -7 -7 -7 -7 -7 -8 -8 -7 -8 -8 -8 -8
-8 -8 -8 -8 -8 -7 -7 -7 -7 -6 -8 -7 -6 -6 -6 -5 -5 -6 -5 -5 -5 -5 -5 -5 -5 -5 -5 -5 -6 -6 -6 -6 -6 -7 -7 -7 -7 -7 -7 -7 -7 -7 -8 -8
-9 -8 -8 -8 -8 -8 -8 -8 -8 -8 -7 -7 -6 -6 -6 -6 -5 -6 -5 -5 -5 -5 -5 -5 -6 -6 -6 -5 -5 -6 -6 -6 -6 -6 -7 -7 -7 -7 -7 -7 -7 -7 -7 -7
-9 -9 -8 -8 -8 -8 -9 -8 -8 -8 -7 -7 -6 -6 -5 -5 -6 -6 -5 -5 -5 -6 -5 -5 -6 -6 -6 -5 -5 -5 -6 -7 -7 -6 -6 -7 -7 -7 -7 -7 -7 -7 -7 -7
-9 -9 -9 -8 -8 -8 -8 -8 -8 -8 -7 -6 -6 -6 -6 -6 -6 -6 -6 -5 -5 -6 -5 -5 -6 -6 -6 -5 -5 -5 -5 -6 -7 -6 -6 -6 -6 -6 -7 -7 -7 -7 -7 -7
-10 -10 -9 -9 -8 -8 -8 -9 -8 -8 -7 -7 -6 -6 -6 -7 -6 -7 -7 -5 -6 -5 -5 -6 -5 -5 -5 -5 -5 -5 -5 -5 -6 -6 -6 -6 -6 -6 -6 -7 -6 -7 -7 -7
-10 -10 -10 -9 -9 -9 -8 -9 -9 -8 -8 -9 -7 -7 -8 -8 -8 -7 -8 -7 -7 -6 -5 -6 -5 -5 -5 -5 -5 -5 -5 -5 -6 -6 -6 -6 -6 -6 -6 -7 -6 -6 -7 -7
-11 -11 -10 -9 -9 -9 -9 -9 -9 -9 -9 -9 -8 -7 -7 -8 -7 -8 -8 -7 -7 -6 -5 -5 -5 -6 -5 -5 -5 -5 -5 -5 -5 -6 -6 -6 -7 -7 -6 -6 -7 -6 -6 -6
-12 -12 -11 -10 -10 -9 -9 -9 -10 -10 -10 -9 -9 -8 -8 -8 -7 -7 -6 -6 -6 -6 -5 -6 -6 -5 -6 -5 -5 -5 -6 -6 -6 -5 -6 -6 -6 -7 -7 -7 -7 -6 -6 -6
-13 -13 -11 -11 -11 -10 -10 -10 -10 -10 -10 -10 -9 -8 -9 -8 -7 -7 -6 -6 -6 -6 -7 -7 -6 -6 -6 -6 -6 -6 -5 -6 -6 -6 -6 -6 -6 -7 -7 -7 -7 -7 -6 -6
-13 -13 -13 -12 -10 -10 -10 -9 -10 -11 -10 -9 -9 -9 -8 -8 -8 -8 -7 -6 -7 -8 -7 -7 -7 -7 -6 -6 -6 -6 -6 -5 -6 -6 -6 -6 -7 -7 -6 -7 -7 -7 -7 -6
-13 -13 -14 -12 -11 -11 -10 -10 -10 -10 -11 -10 -9 -8 -9 -8 -8 -8 -8 -8 -8 -8 -7 -7 -7 -7 -6 -6 -6 -7 -6 -6 -6 -6 -6 -6 -6 -7 -7 -6 -6 -7 -7 -7
-14 -14 -14 -14 -12 -11 -11 -10 -12 -12 -11 -11 -10 -9 -9 -8 -8 -8 -8 -8 -7 -8 -8 -7 -7 -6 -7 -7 -7 -6 -6 -6 -6 -6 -6 -6 -6 -6 -6 -6 -6 -6 -7 -7
-14 -14 -13 -13 -13 -13 -11 -11 -10 -12 -11 -11 -10 -10 -10 -9 -9 -9 -9 -8 -8 -8 -7 -7 -7 -7 -7 -6 -6 -5 -6 -6 -6 -6 -6 -6 -6 -6 -6 -6 -6 -7 -6 -6
-14 -14 -14 -13 -13 -13 -13 -12 -11 -11 -12 -11 -11 -11 -11 -9 -9 -9 -9 -9 -8 -8 -8 -8 -7 -7 -7 -7 -7 -6 -7 -6 -6 -6 -6 -6 -6 -6 -6 -6 -6 -6 -6 -6
-15 -14 -14 -14 -14 -13 -13 -13 -13 -12 -12 -12 -12 -11 -11 -10 -9 -9 -10 -9 -9 -9 -9 -8 -8 -9 -8 -8 -8 -7 -7 -6 -6 -6 -6 -6 -6 -6 -7 -7 -7 -6 -6 -6
-14 -14 -15 -14 -14 -14 -14 -13 -13 -12 -12 -13 -13 -13 -11 -10 -10 -10 -10 -9 -9 -9 -9 -9 -9 -9 -8 -8 -8 -7 -7 -7 -7 -7 -6 -6 -6 -6 -6 -6 -7 -7 -7 -7
-14 -14 -14 -14 -14 -14 -14 -14 -13 -13 -13 -13 -13 -13 -12 -11 -10 -10 -10 -10 -9 -9 -9 -9 -10 -9 -9 -8 -8 -8 -8 -8 -8 -7 -8 -7 -7 -6 -6 -6 -6 -7 -8 -7
-15 -15 -14 -15 -14 -14 -14 -14 -13 -13 -13 -13 -13 -12 -12 -12 -11 -11 -10 -10 -10 -10 -10 -10 -10 -9 -9 -9 -9 -8 -8 -8 -8 -8 -9 -8 -7 -7 -7 -7 -7 -7 -8 -8
-16 -15 -15 -15 -15 -14 -13 -14 -14 -13 -14 -13 -13 -13 -12 -12 -11 -11 -11 -11 -11 -10 -10 -10 -10 -10 -10 -9 -9 -9 -9 -8 -9 -8 -9 -9 -8 -8 -7 -7 -7 -7 -6 -7
-16 -16 -15 -16 -15 -14 -14 -14 -14 -14 -14 -13 -13 -13 -12 -12 -12 -11 -11 -11 -11 -11 -11 -11 -11 -11 -11 -10 -10 -9 -9 -9 -8 -9 -10 -10 -9 -8 -8 -8 -8 -9 -8 -9
-16 -16 -16 -15 -15 -15 -15 -14 -14 -14 -14 -14 -13 -13 -13 -12 -12 -12 -11 -11 -11 -11 -11 -11 -11 -11 -11 -11 -11 -10 -10 -10 -9 -9 -10 -9 -10 -10 -9 -9 -9 -9 -10 -10
-16 -15 -16 -16 -15 -15 -15 -14 -14 -14 -14 -14 -14 -14 -13 -13 -13 -13 -12 -12 -12 -12 -11 -11 -11 -12 -11 -11 -11 -11 -10 -10 -10 -10 -10 -10 -10 -10 -10 -10 -10 -10 -10 -10
-16 -16 -16 -16 -16 -15 -15 -15 -15 -14 -14 -14 -14 -14 -14 -13 -13 -13 -13 -12 -12 -12 -12 -12 -12 -12 -12 -11 -12 -12 -12 -11 -11 -11 -11 -11 -10 -11 -10 -10 -10 -10 -10 -10
-15 -15 -15 -15 -15 -15 -15 -15 -15 -15 -14 -14 -14 -15 -14 -14 -13 -13 -13 -13 -13 -12 -13 -12 -12 -12 -12 -11 -12 -12 -12 -12 -11 -12 -11 -11 -11 -11 -10 -10 -10 -10 -10 -10
-16 -16 -16 -15 -15 -16 -15 -15 -15 -15 -15 -15 -15 -15 -15 -14 -14 -14 -13 -13 -14 -13 -13 -13 -12 -12 -11 -12 -12 -13 -12 -12 -12 -11 -12 -12 -11 -11 -11 -11 -11 -11 -11 -11
Height
5852 5859 5864 5871 5873 5876 5881 5883 5885 5885 5884 5890 5892 5895 5896 5897 5901 5904 5908 5912 5914 5917 5920 5922 5924 5926 5929 5931 5931 5933 5933 5934 5935 5936 5936 5936 5938 5939 5939 5940 5942 5943 5945 5946
5848 5855 5860 5864 5869 5874 5878 5881 5883 5884 5884 5886 5889 5893 5894 5895 5898 5902 5908 5911 5914 5917 5920 5922 5924 5927 5930 5931 5932 5934 5935 5936 5937 5937 5938 5938 5940 5941 5942 5943 5945 5946 5947 5948
5844 5851 5853 5860 5866 5872 5875 5879 5880 5882 5884 5887 5889 5892 5894 5894 5894 5901 5906 5909 5913 5916 5918 5922 5924 5926 5929 5932 5933 5934 5936 5936 5937 5939 5940 5941 5941 5943 5944 5945 5946 5948 5949 5951
5836 5842 5850 5856 5862 5868 5872 5874 5877 5879 5884 5886 5889 5890 5892 5894 5896 5899 5904 5909 5912 5914 5917 5920 5923 5926 5929 5931 5933 5934 5936 5938 5939 5940 5941 5941 5942 5943 5944 5946 5947 5949 5950 5952
5832 5838 5844 5850 5857 5864 5865 5870 5873 5877 5882 5885 5888 5890 5891 5890 5892 5896 5902 5906 5909 5912 5916 5919 5922 5925 5928 5930 5932 5934 5936 5938 5939 5941 5941 5942 5943 5943 5945 5946 5948 5950 5952 5954
5820 5831 5837 5845 5850 5856 5864 5868 5871 5875 5880 5886 5887 5890 5889 5890 5894 5895 5899 5903 5907 5910 5913 5917 5920 5922 5926 5928 5930 5933 5935 5937 5940 5941 5941 5943 5944 5945 5946 5947 5949 5950 5953 5956
5819 5825 5832 5838 5846 5851 5858 5864 5870 5874 5879 5886 5885 5888 5889 5890 5893 5894 5896 5900 5904 5908 5911 5916 5919 5922 5925 5926 5929 5932 5934 5937 5939 5941 5942 5943 5945 5946 5948 5949 5950 5951 5954 5956
5816 5821 5826 5833 5841 5847 5853 5860 5867 5872 5880 5885 5883 5885 5888 5889 5893 5894 5894 5895 5899 5904 5908 5913 5917 5920 5923 5925 5927 5930 5934 5936 5938 5940 5942 5943 5945 5946 5948 5949 5950 5952 5953 5956
5812 5818 5821 5829 5836 5842 5848 5853 5863 5868 5876 5881 5882 5883 5885 5887 5891 5893 5893 5893 5895 5899 5904 5909 5914 5918 5921 5922 5925 5928 5933 5936 5937 5939 5941 5943 5944 5946 5947 5949 5950 5953 5954 5955
5805 5812 5817 5825 5831 5837 5842 5851 5856 5863 5873 5876 5879 5880 5884 5884 5888 5889 5890 5891 5891 5893 5899 5906 5911 5915 5918 5920 5922 5926 5930 5933 5936 5937 5939 5941 5944 5946 5947 5949 5950 5952 5955 5956
5802 5809 5813 5819 5824 5832 5836 5844 5849 5861 5866 5874 5879 5880 5878 5883 5885 5885 5887 5889 5889 5891 5895 5901 5907 5910 5914 5917 5920 5923 5925 5928 5931 5934 5936 5939 5942 5944 5946 5948 5949 5951 5952 5955
5799 5805 5812 5815 5820 5826 5832 5840 5845 5851 5857 5864 5870 5874 5876 5879 5881 5884 5886 5887 5889 5893 5897 5901 5904 5906 5909 5912 5916 5918 5922 5925 5927 5928 5932 5935 5939 5942 5944 5946 5948 5949 5950 5953
5794 5802 5809 5813 5815 5820 5827 5834 5841 5847 5856 5862 5867 5874 5872 5875 5877 5880 5881 5884 5885 5889 5893 5896 5899 5902 5906 5909 5912 5913 5915 5920 5922 5925 5926 5930 5934 5937 5940 5942 5944 5946 5947 5949
5791 5797 5805 5813 5815 5819 5822 5826 5835 5842 5850 5858 5862 5864 5865 5869 5872 5876 5879 5880 5883 5886 5889 5891 5893 5895 5899 5902 5905 5905 5908 5911 5914 5918 5921 5924 5928 5931 5934 5937 5938 5941 5944 5946
5788 5793 5799 5803 5806 5812 5818 5823 5829 5835 5843 5852 5858 5858 5858 5863 5867 5870 5874 5878 5880 5883 5886 5887 5889 5889 5888 5894 5897 5898 5900 5904 5908 5911 5915 5918 5921 5924 5927 5931 5933 5935 5937 5940
5784 5789 5795 5799 5805 5810 5813 5818 5823 5828 5833 5840 5845 5846 5849 5856 5861 5865 5869 5873 5875 5876 5880 5882 5884 5887 5888 5890 5890 5892 5893 5899 5900 5905 5908 5912 5914 5918 5921 5924 5926 5928 5931 5933
5779 5783 5791 5796 5799 5806 5810 5813 5816 5821 5827 5833 5841 5840 5844 5850 5854 5859 5864 5867 5869 5871 5875 5878 5879 5883 5886 5887 5887 5888 5889 5891 5894 5896 5900 5903 5907 5910 5913 5916 5918 5920 5923 5926
5774 5780 5784 5789 5795 5802 5802 5806 5811 5816 5821 5825 5829 5833 5837 5842 5848 5852 5856 5860 5863 5865 5868 5872 5874 5877 5880 5883 5884 5884 5885 5886 5889 5889 5892 5897 5900 5903 5905 5907 5909 5910 5914 5918
5771 5774 5777 5783 5788 5789 5795 5799 5805 5810 5813 5817 5822 5827 5831 5834 5839 5841 5847 5851 5855 5859 5862 5865 5867 5871 5874 5876 5878 5881 5882 5883 5885 5886 5887 5890 5893 5895 5898 5900 5902 5902 5905 5909
5768 5771 5776 5778 5781 5783 5785 5793 5798 5803 5806 5810 5814 5819 5823 5827 5831 5833 5839 5843 5847 5850 5854 5858 5860 5863 5866 5869 5872 5874 5876 5878 5879 5882 5884 5885 5888 5891 5892 5893 5893 5896 5897 5899
5764 5767 5770 5773 5776 5778 5782 5785 5791 5797 5799 5802 5806 5810 5815 5819 5822 5828 5830 5832 5835 5839 5843 5847 5851 5855 5858 5861 5864 5867 5869 5871 5873 5875 5877 5879 5882 5883 5885 5887 5888 5889 5891 5893
5761 5763 5765 5768 5770 5774 5776 5780 5785 5787 5790 5794 5798 5802 5807 5812 5813 5815 5819 5822 5826 5830 5833 5837 5841 5845 5849 5852 5855 5857 5860 5863 5865 5868 5870 5872 5874 5876 5879 5881 5882 5884 5887 5888
5757 5759 5760 5763 5763 5767 5770 5773 5777 5779 5782 5785 5790 5794 5798 5801 5803 5807 5809 5813 5816 5820 5824 5828 5832 5835 5838 5842 5845 5848 5851 5855 5858 5860 5862 5865 5867 5871 5872 5875 5877 5879 5881 5883
5753 5754 5756 5758 5759 5761 5764 5767 5770 5772 5775 5777 5780 5784 5788 5792 5795 5797 5801 5805 5808 5812 5815 5819 5822 5825 5828 5832 5835 5839 5842 5845 5849 5852 5854 5857 5860 5863 5866 5870 5871 5874 5874 5875
5749 5750 5751 5753 5754 5755 5756 5758 5761 5763 5765 5768 5771 5774 5778 5782 5785 5788 5791 5795 5798 5802 5806 5809 5813 5815 5818 5822 5824 5829 5833 5836 5839 5842 5845 5847 5850 5853 5856 5858 5862 5865 5867 5868
5746 5746 5747 5746 5748 5748 5750 5751 5753 5755 5757 5758 5760 5764 5768 5771 5774 5777 5780 5784 5788 5792 5795 5799 5802 5805 5808 5811 5815 5818 5822 5824 5827 5830 5833 5835 5838 5840 5844 5847 5850 5852 5855 5856
Wind_Speed
32 32 27 23 24 21 19 18 17 10 11 6 8 8 12 14 19 23 24 23 23 20 18 18 16 12 11 9 9 11 12 12 12 11 13 15 14 14 16 17 17 17 17 17
35 32 31 30 26 22 22 20 20 13 13 16 9 13 2 19 22 25 25 25 24 22 19 19 17 15 13 12 10 10 13 12 11 13 13 16 15 14 15 17 15 15 14 14
36 36 37 31 29 24 24 21 22 16 16 14 8 10 8 11 20 23 27 29 26 24 22 21 20 19 17 14 12 12 12 13 12 12 13 14 15 15 16 16 16 15 14 12
39 41 37 36 31 28 26 27 24 21 16 13 10 11 12 11 27 26 27 26 25 26 26 25 23 22 20 17 16 13 14 12 12 12 12 14 14 15 16 15 15 14 14 13
39 40 41 40 36 32 33 28 27 24 21 17 13 12 12 18 20 33 28 27 27 27 27 26 25 24 23 20 17 15 13 14 14 13 11 12 13 13 15 16 14 13 13 12
42 39 42 41 42 38 32 30 29 26 22 18 16 14 20 15 29 36 31 29 29 28 28 29 28 26 24 21 21 19 16 14 15 14 13 11 10 12 13 15 14 14 13 12
38 38 41 43 42 42 38 32 29 28 25 14 20 18 13 19 11 15 33 35 28 29 28 28 29 26 24 24 22 20 18 17 16 15 14 11 11 10 10 11 13 14 13 14
38 39 42 43 43 43 41 38 32 28 18 18 21 19 14 10 9 9 6 18 33 32 31 28 25 26 27 25 24 22 20 19 17 16 14 13 11 9 10 10 10 11 12 11
37 33 39 41 42 44 43 42 32 26 25 20 21 22 17 14 11 11 12 12 30 37 33 28 25 25 27 26 25 24 23 20 19 17 15 14 12 11 10 10 9 8 9 10
35 34 38 36 41 42 41 41 40 35 22 21 23 23 18 15 11 8 13 11 27 38 33 29 27 26 27 27 26 25 24 24 21 20 19 17 14 14 13 12 11 9 8 8
34 32 32 36 41 42 45 42 43 27 28 21 23 18 24 17 14 11 13 11 19 18 22 25 30 29 29 29 27 27 26 27 26 24 21 20 19 19 16 16 14 12 11 10
31 29 20 35 35 39 41 39 40 39 30 33 25 23 24 18 16 15 20 21 16 15 20 26 30 33 34 33 30 31 28 29 29 28 25 24 22 22 21 19 18 17 15 14
30 28 23 22 34 36 38 41 32 32 27 23 26 23 20 24 20 18 28 27 26 20 18 24 28 33 36 29 29 23 30 35 30 30 28 27 26 25 26 24 23 22 20 19
27 27 29 21 23 27 37 41 40 29 27 25 26 24 28 25 25 20 24 25 22 23 23 21 23 29 31 35 25 18 36 35 35 33 29 28 28 29 28 27 27 26 24 23
28 29 31 32 26 31 29 33 36 37 27 24 23 31 30 30 29 24 23 24 27 28 26 26 32 34 25 23 29 27 22 32 32 35 32 31 29 30 31 31 31 30 29 28
28 30 28 34 32 31 32 31 31 34 35 33 30 26 31 32 34 34 28 23 27 30 27 26 27 20 14 21 17 24 20 24 32 37 34 31 25 28 30 32 35 36 34 32
29 34 33 25 32 30 30 33 34 35 36 33 26 34 33 30 33 36 35 33 32 29 26 25 21 20 20 23 25 23 26 27 23 34 37 29 36 29 29 31 33 39 40 38
29 26 34 33 32 29 31 31 36 36 34 34 35 34 33 33 31 33 37 39 37 32 29 26 23 22 22 22 24 24 25 27 28 26 20 22 23 29 27 22 29 35 38 42
20 21 28 39 33 35 38 39 36 36 38 36 34 32 30 32 34 38 37 38 37 37 35 35 32 31 30 22 24 28 24 23 22 26 19 21 21 24 23 27 26 27 35 41
16 13 14 35 38 34 37 38 39 39 39 38 37 35 31 29 33 38 36 36 35 39 39 38 36 34 32 32 26 21 23 23 20 17 22 23 20 22 20 33 42 30 34 40
22 19 17 12 22 37 38 36 39 37 38 38 39 37 36 34 36 34 35 37 41 42 39 39 38 36 35 32 30 30 25 24 29 25 28 28 27 24 22 20 22 22 17 16
21 21 25 24 21 20 20 29 37 43 41 35 36 37 35 36 37 37 38 39 39 38 39 40 35 36 37 34 34 32 32 26 28 30 32 34 29 24 24 21 18 20 19 17
16 20 24 26 27 23 25 25 22 25 33 37 37 36 37 38 41 38 37 39 37 37 38 39 38 38 38 34 32 32 31 32 32 36 36 35 30 26 25 26 26 27 26 25
10 11 15 19 25 28 30 31 29 30 29 29 33 36 37 40 41 43 42 39 37 40 41 39 40 41 38 34 36 34 37 36 35 38 38 36 33 27 29 30 29 30 30 30
11 12 13 16 19 22 26 28 28 29 31 35 37 35 36 39 40 43 43 39 39 40 38 41 45 44 46 42 39 36 41 40 39 40 37 39 38 37 36 36 38 35 37 37
8 10 12 17 20 26 27 29 31 31 30 31 37 39 39 41 41 43 44 47 40 38 41 40 43 42 45 46 46 43 48 46 46 47 45 44 45 45 43 43 42 41 39 40
Wind_Direction
200 203 211 209 206 203 203 197 197 212 210 224 209 214 221 223 176 190 190 187 181 179 178 171 162 162 168 162 163 153 146 145 133 131 142 145 140 131 126 130 137 144 146 146
203 200 207 209 206 203 208 206 206 202 208 224 210 212 333 220 199 195 191 191 186 185 184 176 172 171 176 169 173 168 154 149 143 140 143 147 152 143 133 132 141 145 149 151
204 205 207 208 206 203 207 212 218 212 215 210 249 263 271 228 194 202 196 195 186 189 186 184 181 180 178 179 179 174 163 158 146 139 141 145 153 153 143 138 142 143 144 149
205 205 206 209 206 201 210 212 218 219 217 221 220 254 257 251 213 205 201 201 190 189 189 188 184 186 183 184 187 179 181 170 160 153 152 149 148 156 158 152 149 146 144 147
212 207 206 209 206 202 212 211 218 219 217 225 227 262 249 230 229 210 200 195 192 192 192 192 192 190 188 186 193 189 189 185 174 166 167 161 153 155 167 162 164 163 158 156
210 207 207 208 209 206 205 213 219 222 219 221 232 237 234 222 208 201 187 203 193 197 198 195 194 195 194 190 193 196 196 195 188 176 179 173 171 157 165 171 168 172 173 171
211 210 210 209 207 211 208 209 221 224 223 218 225 237 244 258 283 214 196 199 200 198 205 204 199 196 201 198 198 201 202 204 203 191 190 189 183 176 166 168 172 170 175 182
212 210 211 208 209 214 212 209 215 228 228 229 229 234 234 240 246 280 277 218 198 200 203 205 203 201 205 206 206 208 210 210 213 210 202 199 201 198 185 177 183 185 172 181
211 210 211 212 209 213 214 214 207 202 220 212 243 230 225 238 229 225 248 251 219 202 203 201 206 209 211 212 211 212 216 216 218 215 220 208 208 210 209 198 195 202 183 181
211 211 215 211 210 211 216 219 218 214 216 219 241 229 237 226 213 212 223 244 220 209 198 200 205 211 216 218 220 216 220 219 221 221 222 221 216 215 219 214 212 212 214 203
211 209 223 214 210 212 217 217 217 216 219 223 227 252 228 229 230 232 218 203 211 198 193 206 210 212 219 220 223 222 221 223 219 219 221 227 222 220 218 220 222 221 221 220
210 202 218 220 216 210 215 219 224 220 222 207 202 231 238 214 216 218 200 199 193 212 216 218 214 216 215 221 225 220 241 228 224 220 219 223 227 227 227 225 222 219 223 231
206 206 204 215 219 211 213 216 216 224 217 233 223 235 230 208 215 219 225 224 215 210 242 230 229 228 221 228 237 245 227 239 232 228 222 224 227 227 232 226 231 232 225 224
202 203 185 215 227 221 215 216 218 209 217 221 230 222 235 210 213 216 224 240 240 239 235 247 250 215 221 220 225 236 226 234 233 227 225 225 229 230 234 235 232 234 238 234
203 202 200 205 198 209 214 218 218 219 207 215 228 234 229 212 209 211 210 221 234 240 240 243 242 234 241 229 232 228 232 225 224 225 226 228 226 233 232 237 241 239 239 240
200 204 206 213 212 215 219 216 215 215 215 208 207 224 227 217 216 217 219 220 229 238 243 244 250 252 255 271 250 228 214 235 223 224 229 230 230 235 240 239 239 242 242 243
206 193 204 216 218 219 224 219 218 224 225 224 228 237 233 226 219 219 221 222 228 234 238 234 240 237 244 247 257 244 244 256 258 239 246 233 235 229 245 248 246 243 243 241
205 212 204 213 214 216 219 225 225 228 228 231 232 233 235 232 229 226 223 224 228 232 230 231 236 244 245 249 256 256 272 266 265 232 210 222 233 236 238 242 252 249 238 240
228 237 225 217 218 208 214 223 225 228 234 236 239 239 236 235 232 232 227 228 227 230 236 241 249 247 246 249 258 262 261 269 259 260 226 233 236 236 235 239 242 246 238 239
228 234 239 211 216 224 226 224 230 230 234 235 239 239 234 233 233 239 237 235 237 238 239 243 247 249 246 244 244 250 248 249 254 239 234 237 233 237 233 231 242 250 247 242
223 218 208 223 217 232 236 226 227 230 234 237 236 238 234 234 236 235 236 237 236 238 239 241 242 244 248 247 250 246 244 237 229 228 233 235 233 236 245 251 244 251 250 222
219 223 220 218 224 224 223 227 224 232 234 240 238 239 240 237 236 235 234 235 238 238 239 238 237 237 240 246 247 251 247 249 242 233 235 238 237 236 243 241 235 235 240 244
233 234 236 226 227 232 221 225 229 230 232 238 239 240 239 237 235 235 231 233 236 236 235 236 235 232 236 232 236 240 241 247 242 238 237 236 236 240 236 235 236 233 231 230
233 232 230 230 234 237 238 235 241 240 235 235 237 237 238 236 235 236 238 237 239 237 236 236 237 237 238 242 230 232 235 231 235 239 236 236 235 251 246 231 229 233 229 230
235 238 237 239 241 242 241 241 241 240 239 237 235 235 235 235 237 240 240 243 243 243 236 236 239 243 238 240 227 232 227 238 246 246 251 236 254 253 252 249 249 250 243 240
234 244 253 257 255 251 248 245 244 242 240 239 238 239 237 236 235 237 240 240 243 245 247 244 242 245 236 233 240 239 237 244 245 249 250 244 247 249 251 249 253 249 256 250